Time,TemperatureF,DewpointF,PressureIn,WindDirection,WindDirectionDegrees,WindSpeedMPH,WindSpeedGustMPH,Humidity,HourlyPrecipIn,Conditions,Clouds,dailyrainin,SolarRadiationWatts/m^2,SoftwareType,DateUTC
2013-05-02 00:00:00,6.7,2.4,30.68,ENE,78,0.0,0.0,82,0.00,,,0.00,0.00,VWS V14.00,2013-05-02 06:00:00,
2013-05-02 00:04:00,9.0,4.6,30.66,ENE,78,0.0,0.0,82,0.00,,,0.01,0.00,VWS V14.00,2013-05-02 06:04:00,
2013-05-02 00:09:00,8.7,4.3,30.66,ENE,78,0.0,0.0,82,0.00,,,0.01,0.00,VWS V14.00,2013-05-02 06:09:00,
2013-05-02 00:14:00,8.5,4.4,30.67,ENE,78,0.0,0.0,83,0.00,,,0.01,0.00,VWS V14.00,2013-05-02 06:14:00,
2013-05-02 00:15:00,6.4,2.6,30.69,ENE,78,0.0,1.0,84,0.00,,,0.00,0.00,VWS V14.00,2013-05-02 06:15:00,
2013-05-02 00:19:00,8.4,4.3,30.67,ENE,78,0.0,0.0,83,0.00,,,0.01,0.00,VWS V14.00,2013-05-02 06:19:00,
2013-05-02 00:24:00,8.3,4.2,30.67,ENE,78,0.0,0.0,83,0.00,,,0.01,0.00,VWS V14.00,2013-05-02 06:24:00,
2013-05-02 00:29:00,8.2,4.1,30.67,ENE,78,0.0,0.0,83,0.00,,,0.01,0.00,VWS V14.00,2013-05-02 06:29:00,
2013-05-02 00:30:00,6.9,3.6,30.70,ENE,78,0.0,0.0,86,0.00,,,0.00,0.00,VWS V14.00,2013-05-02 06:30:00,
2013-05-02 00:35:00,8.0,3.9,30.67,ENE,78,0.0,0.0,83,0.00,,,0.01,0.00,VWS V14.00,2013-05-02 06:35:00,
2013-05-02 00:40:00,7.7,3.4,30.68,ENE,78,0.0,0.0,82,0.00,,,0.01,0.00,VWS V14.00,2013-05-02 06:40:00,
2013-05-02 00:45:00,7.3,3.0,30.68,ENE,78,0.0,0.0,82,0.00,,,0.01,0.00,VWS V14.00,2013-05-02 06:45:00,
2013-05-02 00:50:00,7.0,2.7,30.68,ENE,78,0.0,0.0,82,0.00,,,0.01,0.00,VWS V14.00,2013-05-02 06:50:00,
2013-05-02 00:55:00,6.7,2.4,30.69,ENE,78,0.0,0.0,82,0.00,,,0.00,0.00,VWS V14.00,2013-05-02 06:55:00,
2013-05-02 01:00:00,6.5,2.2,30.69,ENE,78,0.0,0.0,82,0.00,,,0.00,0.00,VWS V14.00,2013-05-02 07:00:00,
2013-05-02 01:05:00,6.3,2.2,30.69,ENE,78,0.0,1.0,83,0.00,,,0.00,0.00,VWS V14.00,2013-05-02 07:05:00,
2013-05-02 01:10:00,6.4,2.6,30.70,ENE,78,0.0,0.0,84,0.00,,,0.00,0.00,VWS V14.00,2013-05-02 07:10:00,
2013-05-02 01:15:00,6.6,3.1,30.69,ENE,78,0.0,0.0,85,0.00,,,0.00,0.00,VWS V14.00,2013-05-02 07:15:00,
2013-05-02 01:20:00,6.8,3.5,30.70,ENE,78,0.0,0.0,86,0.00,,,0.00,0.00,VWS V14.00,2013-05-02 07:20:00,
2013-05-02 01:25:00,6.9,3.6,30.70,ENE,78,0.0,0.0,86,0.00,,,0.00,0.00,VWS V14.00,2013-05-02 07:25:00,
2013-05-02 01:30:00,7.3,4.2,30.71,ENE,78,0.0,0.0,87,0.00,,,0.00,0.00,VWS V14.00,2013-05-02 07:30:00,
2013-05-02 01:35:00,7.7,4.7,30.71,ENE,78,0.0,1.0,87,0.00,,,0.00,0.00,VWS V14.00,2013-05-02 07:35:00,
2013-05-02 01:41:00,8.1,5.3,30.71,ENE,78,0.0,0.0,88,0.00,,,0.00,0.00,VWS V14.00,2013-05-02 07:41:00,
2013-05-02 01:45:00,11.6,8.7,30.72,ENE,78,0.0,1.0,88,0.00,,,0.00,0.00,VWS V14.00,2013-05-02 07:45:00,
2013-05-02 01:46:00,8.5,5.7,30.72,ENE,78,0.0,0.0,88,0.00,,,0.00,0.00,VWS V14.00,2013-05-02 07:46:00,
2013-05-02 01:51:00,8.9,6.1,30.71,ENE,78,0.0,0.0,88,0.00,,,0.00,0.00,VWS V14.00,2013-05-02 07:51:00,
2013-05-02 01:56:00,9.4,6.6,30.71,ENE,78,0.0,0.0,88,0.00,,,0.00,0.00,VWS V14.00,2013-05-02 07:56:00,
2013-05-02 02:00:00,11.7,8.6,30.72,ENE,78,0.0,0.0,87,0.00,,,0.00,0.00,VWS V14.00,2013-05-02 08:00:00,
2013-05-02 02:01:00,9.8,7.2,30.72,ENE,78,0.0,0.0,89,0.00,,,0.00,0.00,VWS V14.00,2013-05-02 08:01:00,
2013-05-02 02:06:00,10.1,7.5,30.71,ENE,78,0.0,0.0,89,0.00,,,0.00,0.00,VWS V14.00,2013-05-02 08:06:00,
2013-05-02 02:11:00,10.4,7.6,30.71,ENE,78,0.0,0.0,88,0.00,,,0.00,0.00,VWS V14.00,2013-05-02 08:11:00,
2013-05-02 02:15:00,11.9,8.8,30.73,ENE,78,0.0,1.0,87,0.00,,,0.00,0.00,VWS V14.00,2013-05-02 08:15:00,
2013-05-02 02:16:00,10.8,8.2,30.71,ENE,78,0.0,0.0,89,0.00,,,0.00,0.00,VWS V14.00,2013-05-02 08:16:00,
2013-05-02 02:21:00,11.0,8.1,30.71,ENE,78,0.0,0.0,88,0.00,,,0.00,0.00,VWS V14.00,2013-05-02 08:21:00,
2013-05-02 02:26:00,11.2,8.4,30.72,ENE,78,0.0,0.0,88,0.00,,,0.00,0.00,VWS V14.00,2013-05-02 08:26:00,
2013-05-02 02:30:00,11.7,8.3,30.73,North,11,0.0,1.0,86,0.00,,,0.00,0.00,VWS V14.00,2013-05-02 08:30:00,
2013-05-02 02:31:00,11.4,8.5,30.72,ENE,78,0.0,0.0,88,0.00,,,0.00,0.00,VWS V14.00,2013-05-02 08:31:00,
2013-05-02 02:36:00,11.5,8.6,30.72,ENE,78,0.0,1.0,88,0.00,,,0.00,0.00,VWS V14.00,2013-05-02 08:36:00,
2013-05-02 02:41:00,11.6,8.5,30.72,ENE,78,0.0,0.0,87,0.00,,,0.00,0.00,VWS V14.00,2013-05-02 08:41:00,
2013-05-02 02:45:00,11.6,8.5,30.74,North,349,0.0,1.0,87,0.00,,,0.00,0.00,VWS V14.00,2013-05-02 08:45:00,
2013-05-02 02:47:00,11.6,8.5,30.72,ENE,78,0.0,0.0,87,0.00,,,0.00,0.00,VWS V14.00,2013-05-02 08:47:00,
2013-05-02 02:52:00,11.6,8.5,30.72,ENE,78,0.0,0.0,87,0.00,,,0.00,0.00,VWS V14.00,2013-05-02 08:52:00,
2013-05-02 02:57:00,11.7,8.6,30.72,ENE,78,0.0,0.0,87,0.00,,,0.00,0.00,VWS V14.00,2013-05-02 08:57:00,
2013-05-02 03:00:00,11.4,8.0,30.74,NNW,348,0.0,1.0,86,0.00,,,0.00,0.00,VWS V14.00,2013-05-02 09:00:00,
2013-05-02 03:02:00,11.7,8.6,30.72,ENE,78,0.0,0.0,87,0.00,,,0.00,0.00,VWS V14.00,2013-05-02 09:02:00,
2013-05-02 03:07:00,11.8,8.7,30.73,ENE,78,0.0,0.0,87,0.00,,,0.00,0.00,VWS V14.00,2013-05-02 09:07:00,
2013-05-02 03:12:00,11.9,8.8,30.73,ENE,78,0.0,0.0,87,0.00,,,0.00,0.00,VWS V14.00,2013-05-02 09:12:00,
2013-05-02 03:15:00,10.8,7.2,30.75,NNW,346,0.0,1.0,85,0.00,,,0.00,0.00,VWS V14.00,2013-05-02 09:15:00,
2013-05-02 03:17:00,11.9,8.8,30.73,ENE,77,0.0,1.0,87,0.00,,,0.00,0.00,VWS V14.00,2013-05-02 09:17:00,
2013-05-02 03:22:00,11.8,8.7,30.73,NE,34,0.0,1.0,87,0.00,,,0.00,0.00,VWS V14.00,2013-05-02 09:22:00,
2013-05-02 03:27:00,11.7,8.3,30.74,North,5,0.0,1.0,86,0.00,,,0.00,0.00,VWS V14.00,2013-05-02 09:27:00,
2013-05-02 03:30:00,9.9,6.3,30.75,NNW,346,0.0,1.0,85,0.00,,,0.00,0.00,VWS V14.00,2013-05-02 09:30:00,
2013-05-02 03:32:00,11.6,8.2,30.74,North,9,0.0,1.0,86,0.00,,,0.00,0.00,VWS V14.00,2013-05-02 09:32:00,
2013-05-02 03:37:00,11.6,8.5,30.74,North,350,0.0,1.0,87,0.00,,,0.00,0.00,VWS V14.00,2013-05-02 09:37:00,
2013-05-02 03:42:00,11.6,8.2,30.75,North,349,0.0,1.0,86,0.00,,,0.00,0.00,VWS V14.00,2013-05-02 09:42:00,
2013-05-02 03:45:00,9.3,5.4,30.76,NNW,346,0.0,1.0,84,0.00,,,0.00,0.00,VWS V14.00,2013-05-02 09:45:00,
2013-05-02 03:47:00,11.5,8.1,30.74,NNW,348,0.0,1.0,86,0.00,,,0.00,0.00,VWS V14.00,2013-05-02 09:47:00,
2013-05-02 03:52:00,11.4,8.0,30.74,NNW,348,0.0,1.0,86,0.00,,,0.00,0.00,VWS V14.00,2013-05-02 09:52:00,
2013-05-02 03:57:00,11.3,7.9,30.74,NNW,348,0.0,1.0,86,0.00,,,0.00,0.00,VWS V14.00,2013-05-02 09:57:00,
2013-05-02 04:00:00,9.1,5.5,30.76,NW,316,1.0,1.0,85,0.00,,,0.00,0.00,VWS V14.00,2013-05-02 10:00:00,
2013-05-02 04:02:00,11.2,7.8,30.75,NNW,348,0.0,1.0,86,0.00,,,0.00,0.00,VWS V14.00,2013-05-02 10:02:00,
2013-05-02 04:07:00,10.9,7.3,30.75,NNW,346,0.0,1.0,85,0.00,,,0.00,0.00,VWS V14.00,2013-05-02 10:07:00,
2013-05-02 04:13:00,10.7,7.1,30.75,NNW,346,0.0,0.0,85,0.00,,,0.00,0.00,VWS V14.00,2013-05-02 10:13:00,
2013-05-02 04:15:00,9.9,6.6,30.77,WNW,300,0.0,1.0,86,0.00,,,0.00,0.00,VWS V14.00,2013-05-02 10:15:00,
2013-05-02 04:18:00,10.3,6.7,30.75,NNW,346,0.0,1.0,85,0.00,,,0.00,0.00,VWS V14.00,2013-05-02 10:18:00,
2013-05-02 04:23:00,10.0,6.1,30.75,NNW,346,0.0,1.0,84,0.00,,,0.00,0.00,VWS V14.00,2013-05-02 10:23:00,
2013-05-02 04:28:00,9.9,6.3,30.75,NNW,346,0.0,0.0,85,0.00,,,0.00,0.00,VWS V14.00,2013-05-02 10:28:00,
2013-05-02 04:30:00,10.3,6.9,30.78,WNW,296,0.0,2.0,86,0.00,,,0.00,0.00,VWS V14.00,2013-05-02 10:30:00,
2013-05-02 04:33:00,9.7,6.1,30.75,NNW,346,0.0,1.0,85,0.00,,,0.00,0.00,VWS V14.00,2013-05-02 10:33:00,
2013-05-02 04:38:00,9.4,5.6,30.76,NNW,346,0.0,1.0,84,0.00,,,0.00,0.00,VWS V14.00,2013-05-02 10:38:00,
2013-05-02 04:43:00,9.1,5.3,30.76,NNW,342,0.0,1.0,84,0.00,,,0.00,0.00,VWS V14.00,2013-05-02 10:43:00,
2013-05-02 04:45:00,9.9,6.3,30.78,WNW,296,0.0,1.0,85,0.00,,,0.00,0.00,VWS V14.00,2013-05-02 10:45:00,
2013-05-02 04:48:00,9.0,5.4,30.76,NNW,333,0.0,1.0,85,0.00,,,0.00,0.00,VWS V14.00,2013-05-02 10:48:00,
2013-05-02 04:53:00,9.1,5.5,30.76,NW,320,0.0,1.0,85,0.00,,,0.00,0.00,VWS V14.00,2013-05-02 10:53:00,
2013-05-02 04:58:00,9.3,6.0,30.77,NW,309,0.0,1.0,86,0.00,,,0.00,0.00,VWS V14.00,2013-05-02 10:58:00,
2013-05-02 05:00:00,9.2,5.4,30.79,WNW,296,0.0,1.0,84,0.00,,,0.00,0.00,VWS V14.00,2013-05-02 11:00:00,
2013-05-02 05:03:00,9.6,6.3,30.77,WNW,302,0.0,1.0,86,0.00,,,0.00,0.00,VWS V14.00,2013-05-02 11:03:00,
2013-05-02 05:08:00,9.9,6.6,30.77,WNW,300,0.0,1.0,86,0.00,,,0.00,0.00,VWS V14.00,2013-05-02 11:08:00,
2013-05-02 05:14:00,10.1,6.8,30.77,WNW,299,0.0,1.0,86,0.00,,,0.00,0.00,VWS V14.00,2013-05-02 11:14:00,
2013-05-02 05:15:00,8.7,4.9,30.81,WNW,296,0.0,1.0,84,0.00,,,0.00,0.00,VWS V14.00,2013-05-02 11:15:00,
2013-05-02 05:19:00,10.2,6.8,30.77,WNW,296,0.0,2.0,86,0.00,,,0.00,0.00,VWS V14.00,2013-05-02 11:19:00,
2013-05-02 05:24:00,10.3,6.9,30.78,WNW,296,0.0,2.0,86,0.00,,,0.00,0.00,VWS V14.00,2013-05-02 11:24:00,
2013-05-02 05:29:00,10.2,6.6,30.78,WNW,296,0.0,1.0,85,0.00,,,0.00,0.00,VWS V14.00,2013-05-02 11:29:00,
2013-05-02 05:30:00,8.9,5.3,30.82,WNW,296,0.0,1.0,85,0.00,,,0.00,21.00,VWS V14.00,2013-05-02 11:30:00,
2013-05-02 05:34:00,10.1,6.5,30.78,WNW,296,0.0,1.0,85,0.00,,,0.00,0.00,VWS V14.00,2013-05-02 11:34:00,
2013-05-02 05:39:00,9.9,6.3,30.78,WNW,296,0.0,1.0,85,0.00,,,0.00,0.00,VWS V14.00,2013-05-02 11:39:00,
2013-05-02 05:44:00,9.7,6.1,30.79,WNW,296,0.0,1.0,85,0.00,,,0.00,0.00,VWS V14.00,2013-05-02 11:44:00,
2013-05-02 05:45:00,10.9,7.8,30.82,WNW,296,0.0,1.0,87,0.00,,,0.00,35.00,VWS V14.00,2013-05-02 11:45:00,
2013-05-02 05:49:00,9.5,5.7,30.79,WNW,296,0.0,1.0,84,0.00,,,0.00,0.00,VWS V14.00,2013-05-02 11:49:00,
2013-05-02 05:54:00,9.3,5.4,30.79,WNW,296,0.0,1.0,84,0.00,,,0.00,0.00,VWS V14.00,2013-05-02 11:54:00,
2013-05-02 05:59:00,9.1,5.3,30.80,WNW,296,0.0,0.0,84,0.00,,,0.00,0.00,VWS V14.00,2013-05-02 11:59:00,
2013-05-02 06:00:00,13.0,10.1,30.83,WNW,296,0.0,1.0,88,0.00,,,0.00,44.00,VWS V14.00,2013-05-02 12:00:00,
2013-05-02 06:04:00,8.8,5.0,30.80,WNW,296,0.0,1.0,84,0.00,,,0.00,0.00,VWS V14.00,2013-05-02 12:04:00,
2013-05-02 06:09:00,8.8,5.0,30.81,WNW,296,0.0,1.0,84,0.00,,,0.00,0.00,VWS V14.00,2013-05-02 12:09:00,
2013-05-02 06:14:00,8.7,5.1,30.81,WNW,296,0.0,0.0,85,0.00,,,0.00,0.00,VWS V14.00,2013-05-02 12:14:00,
2013-05-02 06:15:00,14.8,11.9,30.84,WNW,296,0.0,0.0,88,0.00,,,0.00,28.00,VWS V14.00,2013-05-02 12:15:00,
2013-05-02 06:20:00,8.8,5.2,30.81,WNW,296,0.0,1.0,85,0.00,,,0.00,5.00,VWS V14.00,2013-05-02 12:20:00,
2013-05-02 06:25:00,8.9,5.3,30.82,WNW,296,0.0,1.0,85,0.00,,,0.00,21.00,VWS V14.00,2013-05-02 12:25:00,
2013-05-02 06:30:00,9.4,6.1,30.82,WNW,296,1.0,1.0,86,0.00,,,0.00,28.00,VWS V14.00,2013-05-02 12:30:00,
2013-05-02 06:35:00,10.2,7.1,30.82,WNW,296,0.0,1.0,87,0.00,,,0.00,32.00,VWS V14.00,2013-05-02 12:35:00,
2013-05-02 06:40:00,10.9,7.8,30.82,WNW,296,0.0,1.0,87,0.00,,,0.00,35.00,VWS V14.00,2013-05-02 12:40:00,
2013-05-02 06:45:00,11.7,8.8,30.83,WNW,296,0.0,1.0,88,0.00,,,0.00,39.00,VWS V14.00,2013-05-02 12:45:00,
2013-05-02 06:50:00,12.3,9.2,30.83,WNW,296,0.0,1.0,87,0.00,,,0.00,40.00,VWS V14.00,2013-05-02 12:50:00,
2013-05-02 06:55:00,13.1,10.2,30.83,WNW,296,0.0,0.0,88,0.00,,,0.00,44.00,VWS V14.00,2013-05-02 12:55:00,
2013-05-02 07:00:00,13.7,10.8,30.83,WNW,296,0.0,0.0,88,0.00,,,0.00,46.00,VWS V14.00,2013-05-02 13:00:00,
2013-05-02 07:05:00,14.3,11.4,30.84,WNW,296,0.0,0.0,88,0.00,,,0.00,46.00,VWS V14.00,2013-05-02 13:05:00,
2013-05-02 07:10:00,14.9,11.7,30.84,WNW,296,0.0,0.0,87,0.00,,,0.00,21.00,VWS V14.00,2013-05-02 13:10:00,
2013-05-02 07:15:00,15.3,12.1,30.85,WNW,296,0.0,0.0,87,0.00,,,0.00,19.00,VWS V14.00,2013-05-02 13:15:00,
2013-05-02 07:21:00,15.5,12.3,30.85,WNW,296,0.0,1.0,87,0.00,,,0.00,25.00,VWS V14.00,2013-05-02 13:21:00,
2013-05-02 07:26:00,15.7,12.3,30.86,WNW,296,0.0,0.0,86,0.00,,,0.00,23.00,VWS V14.00,2013-05-02 13:26:00,
2013-05-02 07:30:00,23.0,18.0,30.86,WNW,296,0.0,1.0,81,0.00,,,0.00,67.00,VWS V14.00,2013-05-02 13:30:00,
2013-05-02 07:31:00,15.8,12.1,30.86,WNW,296,0.0,1.0,85,0.00,,,0.00,23.00,VWS V14.00,2013-05-02 13:31:00,
2013-05-02 07:36:00,15.9,11.9,30.86,WNW,296,0.0,1.0,84,0.00,,,0.00,23.00,VWS V14.00,2013-05-02 13:36:00,
2013-05-02 07:41:00,15.9,11.9,30.86,WNW,296,0.0,0.0,84,0.00,,,0.00,23.00,VWS V14.00,2013-05-02 13:41:00,
2013-05-02 07:45:00,27.0,19.8,30.86,WNW,296,0.0,2.0,74,0.00,,,0.00,70.00,VWS V14.00,2013-05-02 13:45:00,
2013-05-02 07:46:00,15.9,11.7,30.86,WNW,296,0.0,1.0,83,0.00,,,0.00,33.00,VWS V14.00,2013-05-02 13:46:00,
2013-05-02 07:51:00,16.2,12.0,30.86,WNW,296,0.0,1.0,83,0.00,,,0.00,47.00,VWS V14.00,2013-05-02 13:51:00,
2013-05-02 07:57:00,16.6,12.6,30.86,WNW,296,0.0,1.0,84,0.00,,,0.00,60.00,VWS V14.00,2013-05-02 13:57:00,
2013-05-02 08:00:00,29.9,19.9,30.86,WNW,296,0.0,2.0,66,0.08,,,0.02,72.00,VWS V14.00,2013-05-02 14:00:00,
2013-05-02 08:02:00,17.5,13.8,30.85,WNW,296,0.0,1.0,85,0.00,,,0.00,63.00,VWS V14.00,2013-05-02 14:02:00,
2013-05-02 08:07:00,18.5,15.0,30.85,WNW,296,0.0,1.0,86,0.00,,,0.00,65.00,VWS V14.00,2013-05-02 14:07:00,
2013-05-02 08:12:00,19.6,15.8,30.86,WNW,296,0.0,0.0,85,0.00,,,0.00,65.00,VWS V14.00,2013-05-02 14:12:00,
2013-05-02 08:15:00,31.6,19.7,30.85,WNW,302,1.0,4.0,61,0.08,,,0.04,76.00,VWS V14.00,2013-05-02 14:15:00,
2013-05-02 08:17:00,20.7,16.9,30.86,WNW,296,0.0,1.0,85,0.00,,,0.00,65.00,VWS V14.00,2013-05-02 14:17:00,
2013-05-02 08:22:00,22.2,17.3,30.86,WNW,296,0.0,1.0,81,0.00,,,0.00,67.00,VWS V14.00,2013-05-02 14:22:00,
2013-05-02 08:27:00,23.5,18.5,30.86,WNW,296,0.0,0.0,81,0.00,,,0.00,67.00,VWS V14.00,2013-05-02 14:27:00,
2013-05-02 08:30:00,32.8,20.1,30.84,NW,310,1.0,4.0,59,0.07,,,0.06,79.00,VWS V14.00,2013-05-02 14:30:00,
2013-05-02 08:32:00,24.8,18.3,30.86,WNW,296,0.0,1.0,76,0.00,,,0.00,69.00,VWS V14.00,2013-05-02 14:32:00,
2013-05-02 08:37:00,26.3,17.9,30.86,WNW,296,0.0,1.0,70,0.00,,,0.00,69.00,VWS V14.00,2013-05-02 14:37:00,
2013-05-02 08:42:00,27.6,19.8,30.86,WNW,296,0.0,1.0,72,0.00,,,0.01,70.00,VWS V14.00,2013-05-02 14:42:00,
2013-05-02 08:45:00,33.8,20.2,30.84,NW,321,0.0,4.0,57,0.10,,,0.08,90.00,VWS V14.00,2013-05-02 14:45:00,
2013-05-02 08:47:00,28.7,18.4,30.86,WNW,296,0.0,2.0,65,0.00,,,0.01,70.00,VWS V14.00,2013-05-02 14:47:00,
2013-05-02 08:52:00,29.6,18.2,30.86,WNW,296,0.0,2.0,62,0.10,,,0.02,72.00,VWS V14.00,2013-05-02 14:52:00,
2013-05-02 08:57:00,30.2,19.5,30.86,WNW,296,0.0,1.0,64,0.07,,,0.03,72.00,VWS V14.00,2013-05-02 14:57:00,
2013-05-02 09:00:00,33.1,19.5,30.83,NW,325,0.0,2.0,57,0.08,,,0.10,88.00,VWS V14.00,2013-05-02 15:00:00,
2013-05-02 09:03:00,31.0,20.6,30.85,WNW,296,1.0,2.0,65,0.07,,,0.03,74.00,VWS V14.00,2013-05-02 15:03:00,
2013-05-02 09:08:00,31.4,22.1,30.85,WNW,302,0.0,4.0,68,0.08,,,0.04,76.00,VWS V14.00,2013-05-02 15:08:00,
2013-05-02 09:13:00,31.8,21.0,30.85,NW,307,0.0,2.0,64,0.08,,,0.05,76.00,VWS V14.00,2013-05-02 15:13:00,
2013-05-02 09:15:00,32.3,21.1,30.83,NNE,23,2.0,4.0,63,0.06,,,0.11,100.00,VWS V14.00,2013-05-02 15:15:00,
2013-05-02 09:18:00,31.9,21.5,30.84,NW,308,0.0,4.0,65,0.08,,,0.05,77.00,VWS V14.00,2013-05-02 15:18:00,
2013-05-02 09:23:00,32.6,17.8,30.84,NW,308,1.0,4.0,54,0.07,,,0.06,77.00,VWS V14.00,2013-05-02 15:23:00,
2013-05-02 09:28:00,33.0,19.0,30.84,NW,311,0.0,2.0,56,0.07,,,0.06,79.00,VWS V14.00,2013-05-02 15:28:00,
2013-05-02 09:30:00,33.1,20.7,30.83,ENE,68,1.0,5.0,60,0.06,,,0.13,93.00,VWS V14.00,2013-05-02 15:30:00,
2013-05-02 09:33:00,33.4,19.0,30.84,NW,314,2.0,4.0,55,0.06,,,0.07,83.00,VWS V14.00,2013-05-02 15:33:00,
2013-05-02 09:38:00,33.7,20.5,30.84,NW,315,0.0,4.0,58,0.10,,,0.08,88.00,VWS V14.00,2013-05-02 15:38:00,
2013-05-02 09:43:00,33.9,22.6,30.83,NW,323,1.0,2.0,63,0.08,,,0.08,81.00,VWS V14.00,2013-05-02 15:43:00,
2013-05-02 09:45:00,34.5,20.9,30.83,East,91,2.0,6.0,57,0.06,,,0.15,109.00,VWS V14.00,2013-05-02 15:45:00,
2013-05-02 09:48:00,33.7,20.9,30.83,NW,325,1.0,2.0,59,0.07,,,0.09,40.00,VWS V14.00,2013-05-02 15:48:00,
2013-05-02 09:53:00,33.2,19.2,30.83,NW,325,0.0,2.0,56,0.08,,,0.10,49.00,VWS V14.00,2013-05-02 15:53:00,
2013-05-02 09:59:00,32.8,18.8,30.83,NNW,331,0.0,2.0,56,0.08,,,0.10,77.00,VWS V14.00,2013-05-02 15:59:00,
2013-05-02 10:00:00,27.6,15.9,30.84,ENE,62,0.0,6.0,61,0.06,,,0.16,135.00,VWS V14.00,2013-05-02 16:00:00,
2013-05-02 10:04:00,32.2,21.0,30.83,North,350,0.0,4.0,63,0.06,,,0.11,65.00,VWS V14.00,2013-05-02 16:04:00,
2013-05-02 10:09:00,32.1,20.6,30.83,North,10,0.0,4.0,62,0.06,,,0.11,84.00,VWS V14.00,2013-05-02 16:09:00,
2013-05-02 10:14:00,32.7,20.4,30.83,NNE,24,0.0,3.0,60,0.07,,,0.12,109.00,VWS V14.00,2013-05-02 16:14:00,
2013-05-02 10:15:00,26.9,17.1,30.83,ENE,61,4.0,5.0,66,0.07,,,0.18,162.00,VWS V14.00,2013-05-02 16:15:00,
2013-05-02 10:19:00,33.1,21.5,30.83,NNE,28,2.0,4.0,62,0.07,,,0.12,100.00,VWS V14.00,2013-05-02 16:19:00,
2013-05-02 10:24:00,33.1,20.7,30.83,ENE,68,0.0,5.0,60,0.06,,,0.13,93.00,VWS V14.00,2013-05-02 16:24:00,
2013-05-02 10:29:00,33.4,19.8,30.83,ENE,71,1.0,3.0,57,0.08,,,0.14,97.00,VWS V14.00,2013-05-02 16:29:00,
2013-05-02 10:30:00,28.2,19.0,30.83,ENE,67,1.0,6.0,68,0.04,,,0.19,225.00,VWS V14.00,2013-05-02 16:30:00,
2013-05-02 10:34:00,34.2,21.4,30.83,ENE,75,1.0,4.0,59,0.08,,,0.14,105.00,VWS V14.00,2013-05-02 16:34:00,
2013-05-02 10:39:00,34.5,20.9,30.83,East,91,1.0,6.0,57,0.06,,,0.15,109.00,VWS V14.00,2013-05-02 16:39:00,
2013-05-02 10:44:00,35.0,19.6,30.83,East,82,2.0,6.0,53,0.06,,,0.15,113.00,VWS V14.00,2013-05-02 16:44:00,
2013-05-02 10:45:00,29.3,19.0,30.83,ENE,77,0.0,5.0,65,0.06,,,0.21,151.00,VWS V14.00,2013-05-02 16:45:00,
2013-05-02 10:50:00,30.5,15.0,30.83,ENE,63,3.0,6.0,52,0.07,,,0.16,123.00,VWS V14.00,2013-05-02 16:50:00,
2013-05-02 10:55:00,27.6,15.9,30.84,ENE,62,2.0,6.0,61,0.07,,,0.16,135.00,VWS V14.00,2013-05-02 16:55:00,
2013-05-02 11:00:00,26.7,16.2,30.84,ENE,58,1.0,4.0,64,0.06,,,0.17,148.00,VWS V14.00,2013-05-02 17:00:00,
2013-05-02 11:05:00,26.8,16.3,30.83,ENE,62,0.0,5.0,64,0.07,,,0.18,158.00,VWS V14.00,2013-05-02 17:05:00,
2013-05-02 11:10:00,26.9,17.4,30.83,ENE,57,3.0,4.0,67,0.07,,,0.18,162.00,VWS V14.00,2013-05-02 17:10:00,
2013-05-02 11:15:00,27.3,18.1,30.83,ENE,61,2.0,4.0,68,0.05,,,0.18,174.00,VWS V14.00,2013-05-02 17:15:00,
2013-05-02 11:20:00,27.6,17.7,30.83,ENE,66,0.0,6.0,66,0.04,,,0.19,190.00,VWS V14.00,2013-05-02 17:20:00,
2013-05-02 11:25:00,28.3,19.1,30.83,ENE,68,3.0,3.0,68,0.04,,,0.19,232.00,VWS V14.00,2013-05-02 17:25:00,
2013-05-02 11:30:00,28.5,19.0,30.83,ENE,74,2.0,5.0,67,0.05,,,0.20,250.00,VWS V14.00,2013-05-02 17:30:00,
2013-05-02 11:36:00,28.9,18.3,30.83,ENE,77,1.0,5.0,64,0.05,,,0.20,156.00,VWS V14.00,2013-05-02 17:36:00,
2013-05-02 11:41:00,29.4,19.1,30.83,ENE,77,0.0,2.0,65,0.06,,,0.21,158.00,VWS V14.00,2013-05-02 17:41:00,
2013-05-02 11:45:00,28.3,19.5,30.81,East,82,0.0,3.0,69,0.00,,,0.25,135.00,VWS V14.00,2013-05-02 17:45:00,
2013-05-02 11:46:00,29.1,18.8,30.83,East,82,0.0,4.0,65,0.06,,,0.21,193.00,VWS V14.00,2013-05-02 17:46:00,
2013-05-02 11:51:00,28.3,18.8,30.83,East,83,0.0,4.0,67,0.07,,,0.22,146.00,VWS V14.00,2013-05-02 17:51:00,
2013-05-02 11:56:00,28.2,18.3,30.83,East,84,0.0,1.0,66,0.06,,,0.22,116.00,VWS V14.00,2013-05-02 17:56:00,
2013-05-02 12:00:00,28.4,19.9,30.81,East,79,1.0,3.0,70,0.00,,,0.25,74.00,VWS V14.00,2013-05-02 18:00:00,
2013-05-02 12:01:00,28.4,18.5,30.83,East,81,1.0,3.0,66,0.04,,,0.23,163.00,VWS V14.00,2013-05-02 18:01:00,
2013-05-02 12:06:00,27.9,18.7,30.82,East,81,1.0,3.0,68,0.04,,,0.23,178.00,VWS V14.00,2013-05-02 18:06:00,
2013-05-02 12:11:00,27.6,18.4,30.82,East,80,2.0,2.0,68,0.04,,,0.23,193.00,VWS V14.00,2013-05-02 18:11:00,
2013-05-02 12:15:00,28.0,20.5,30.80,East,79,0.0,2.0,73,0.00,,,0.25,86.00,VWS V14.00,2013-05-02 18:15:00,
2013-05-02 12:17:00,27.8,19.3,30.82,East,83,0.0,3.0,70,0.04,,,0.23,160.00,VWS V14.00,2013-05-02 18:17:00,
2013-05-02 12:22:00,27.9,19.4,30.81,East,82,0.0,5.0,70,0.04,,,0.24,134.00,VWS V14.00,2013-05-02 18:22:00,
2013-05-02 12:27:00,28.1,19.3,30.81,East,82,0.0,3.0,69,0.04,,,0.24,141.00,VWS V14.00,2013-05-02 18:27:00,
2013-05-02 12:30:00,28.5,21.0,30.79,East,79,1.0,2.0,73,0.00,,,0.26,213.00,VWS V14.00,2013-05-02 18:30:00,
2013-05-02 12:32:00,28.4,19.9,30.81,East,83,2.0,3.0,70,0.04,,,0.24,123.00,VWS V14.00,2013-05-02 18:32:00,
2013-05-02 12:37:00,28.3,19.1,30.81,East,83,2.0,3.0,68,0.00,,,0.24,149.00,VWS V14.00,2013-05-02 18:37:00,
2013-05-02 12:42:00,28.2,19.0,30.81,East,82,0.0,1.0,68,0.00,,,0.25,114.00,VWS V14.00,2013-05-02 18:42:00,
2013-05-02 12:45:00,29.3,20.8,30.78,East,80,2.0,3.0,70,0.00,,,0.26,113.00,VWS V14.00,2013-05-02 18:45:00,
2013-05-02 12:47:00,28.4,19.9,30.81,ENE,78,0.0,3.0,70,0.00,,,0.25,91.00,VWS V14.00,2013-05-02 18:47:00,
2013-05-02 12:52:00,28.5,20.0,30.81,East,79,0.0,3.0,70,0.00,,,0.25,86.00,VWS V14.00,2013-05-02 18:52:00,
2013-05-02 12:58:00,28.4,20.2,30.81,East,79,0.0,1.0,71,0.00,,,0.25,69.00,VWS V14.00,2013-05-02 18:58:00,
2013-05-02 13:00:00,27.9,20.4,30.78,East,85,0.0,4.0,73,0.00,,,0.26,111.00,VWS V14.00,2013-05-02 19:00:00,
2013-05-02 13:03:00,28.3,20.8,30.80,East,79,1.0,2.0,73,0.00,,,0.25,83.00,VWS V14.00,2013-05-02 19:03:00,
2013-05-02 13:08:00,28.0,20.5,30.80,East,79,0.0,2.0,73,0.00,,,0.25,97.00,VWS V14.00,2013-05-02 19:08:00,
2013-05-02 13:13:00,28.0,20.5,30.80,East,79,0.0,2.0,73,0.00,,,0.26,88.00,VWS V14.00,2013-05-02 19:13:00,
2013-05-02 13:15:00,27.1,20.2,30.77,ENE,76,0.0,3.0,75,0.00,,,0.27,151.00,VWS V14.00,2013-05-02 19:15:00,
2013-05-02 13:18:00,28.0,20.5,30.80,East,79,0.0,2.0,73,0.00,,,0.26,139.00,VWS V14.00,2013-05-02 19:18:00,
2013-05-02 13:23:00,28.4,20.9,30.79,East,79,0.0,2.0,73,0.00,,,0.26,195.00,VWS V14.00,2013-05-02 19:23:00,
2013-05-02 13:28:00,29.1,21.2,30.79,East,79,0.0,1.0,72,0.00,,,0.26,202.00,VWS V14.00,2013-05-02 19:28:00,
2013-05-02 13:30:00,27.1,20.2,30.77,East,96,0.0,4.0,75,0.00,,,0.27,265.00,VWS V14.00,2013-05-02 19:30:00,
2013-05-02 13:34:00,29.7,21.5,30.79,East,79,1.0,2.0,71,0.00,,,0.26,156.00,VWS V14.00,2013-05-02 19:34:00,
2013-05-02 13:39:00,29.4,20.8,30.78,East,80,0.0,3.0,70,0.00,,,0.26,116.00,VWS V14.00,2013-05-02 19:39:00,
2013-05-02 13:44:00,28.9,20.7,30.78,East,85,0.0,4.0,71,0.00,,,0.26,95.00,VWS V14.00,2013-05-02 19:44:00,
2013-05-02 13:45:00,27.0,19.8,30.76,ENE,72,2.0,5.0,74,0.00,,,0.27,281.00,VWS V14.00,2013-05-02 19:45:00,
2013-05-02 13:49:00,28.5,20.3,30.78,East,85,0.0,4.0,71,0.00,,,0.26,98.00,VWS V14.00,2013-05-02 19:49:00,
2013-05-02 13:54:00,28.0,20.2,30.78,East,85,0.0,4.0,72,0.00,,,0.26,113.00,VWS V14.00,2013-05-02 19:54:00,
2013-05-02 13:59:00,27.7,20.5,30.78,East,80,1.0,3.0,74,0.00,,,0.27,114.00,VWS V14.00,2013-05-02 19:59:00,
2013-05-02 14:00:00,27.0,21.1,30.75,East,88,2.0,4.0,78,0.00,,,0.28,246.00,VWS V14.00,2013-05-02 20:00:00,
2013-05-02 14:04:00,27.3,20.1,30.78,ENE,77,0.0,3.0,74,0.00,,,0.27,156.00,VWS V14.00,2013-05-02 20:04:00,
2013-05-02 14:09:00,27.1,20.2,30.77,ENE,77,1.0,3.0,75,0.00,,,0.27,155.00,VWS V14.00,2013-05-02 20:09:00,
2013-05-02 14:14:00,26.9,19.7,30.77,ENE,74,2.0,3.0,74,0.00,,,0.27,169.00,VWS V14.00,2013-05-02 20:14:00,
2013-05-02 14:15:00,26.9,19.7,30.74,ENE,60,2.0,4.0,74,0.00,,,0.29,1058.00,VWS V14.00,2013-05-02 20:15:00,
2013-05-02 14:19:00,27.0,20.5,30.77,ENE,75,0.0,4.0,76,0.00,,,0.27,237.00,VWS V14.00,2013-05-02 20:19:00,
2013-05-02 14:24:00,27.1,20.2,30.76,East,96,0.0,4.0,75,0.00,,,0.27,265.00,VWS V14.00,2013-05-02 20:24:00,
2013-05-02 14:29:00,27.1,20.5,30.76,East,96,0.0,2.0,76,0.00,,,0.27,186.00,VWS V14.00,2013-05-02 20:29:00,
2013-05-02 14:30:00,27.4,20.5,30.73,ENE,65,2.0,4.0,75,0.05,,,0.30,1116.00,VWS V14.00,2013-05-02 20:30:00,
2013-05-02 14:35:00,27.4,20.2,30.76,East,101,0.0,5.0,74,0.00,,,0.27,141.00,VWS V14.00,2013-05-02 20:35:00,
2013-05-02 14:40:00,27.0,19.8,30.76,ENE,72,1.0,5.0,74,0.00,,,0.27,281.00,VWS V14.00,2013-05-02 20:40:00,
2013-05-02 14:45:00,26.7,20.2,30.75,ENE,74,1.0,3.0,76,0.00,,,0.28,278.00,VWS V14.00,2013-05-02 20:45:00,
2013-05-02 14:50:00,26.7,20.2,30.76,ENE,75,0.0,3.0,76,0.00,,,0.28,257.00,VWS V14.00,2013-05-02 20:50:00,
2013-05-02 14:55:00,27.0,21.1,30.75,East,88,2.0,4.0,78,0.00,,,0.28,246.00,VWS V14.00,2013-05-02 20:55:00,
2013-05-02 15:00:00,27.2,20.6,30.75,East,89,0.0,4.0,76,0.00,,,0.28,860.00,VWS V14.00,2013-05-02 21:00:00,
2013-05-02 15:05:00,27.2,20.3,30.74,ENE,66,3.0,4.0,75,0.00,,,0.29,965.00,VWS V14.00,2013-05-02 21:05:00,
2013-05-02 15:10:00,26.8,19.6,30.74,ENE,60,0.0,2.0,74,0.00,,,0.29,1058.00,VWS V14.00,2013-05-02 21:10:00,
2013-05-02 15:15:00,26.9,20.0,30.73,ENE,61,2.0,3.0,75,0.00,,,0.29,1144.00,VWS V14.00,2013-05-02 21:15:00,
2013-05-02 15:20:00,27.2,20.0,30.73,ENE,65,2.0,4.0,74,0.05,,,0.30,1151.00,VWS V14.00,2013-05-02 21:20:00,
2013-05-02 15:25:00,27.4,20.5,30.73,ENE,65,0.0,3.0,75,0.05,,,0.30,1114.00,VWS V14.00,2013-05-02 21:25:00,
2013-05-02 15:30:00,28.3,21.4,30.71,East,83,0.0,4.0,75,0.09,,,0.38,821.00,VWS V14.00,2013-05-02 21:30:00,
2013-05-02 15:31:00,27.5,20.6,30.73,ENE,71,2.0,3.0,75,0.05,,,0.31,1097.00,VWS V14.00,2013-05-02 21:31:00,
2013-05-02 15:36:00,27.9,21.3,30.72,ENE,71,0.0,3.0,76,0.05,,,0.31,1125.00,VWS V14.00,2013-05-02 21:36:00,
2013-05-02 15:41:00,28.1,21.2,30.72,ENE,72,0.0,2.0,75,0.06,,,0.32,1093.00,VWS V14.00,2013-05-02 21:41:00,
2013-05-02 15:45:00,27.9,20.1,30.70,ENE,75,0.0,5.0,72,0.07,,,0.40,710.00,VWS V14.00,2013-05-02 21:45:00,
2013-05-02 15:46:00,28.3,21.7,30.71,ENE,69,0.0,3.0,76,0.06,,,0.32,1004.00,VWS V14.00,2013-05-02 21:46:00,
2013-05-02 15:51:00,28.3,21.4,30.72,ENE,67,2.0,5.0,75,0.07,,,0.33,940.00,VWS V14.00,2013-05-02 21:51:00,
2013-05-02 15:56:00,28.3,21.4,30.72,ENE,69,2.0,2.0,75,0.11,,,0.34,923.00,VWS V14.00,2013-05-02 21:56:00,
2013-05-02 16:00:00,28.4,20.2,30.70,ENE,77,0.0,3.0,71,0.06,,,0.41,487.00,VWS V14.00,2013-05-02 22:00:00,
2013-05-02 16:01:00,28.4,21.5,30.71,ENE,69,1.0,3.0,75,0.08,,,0.35,870.00,VWS V14.00,2013-05-02 22:01:00,
2013-05-02 16:06:00,28.3,21.4,30.71,ENE,71,0.0,5.0,75,0.08,,,0.35,838.00,VWS V14.00,2013-05-02 22:06:00,
2013-05-02 16:11:00,28.2,21.3,30.71,ENE,67,0.0,3.0,75,0.08,,,0.36,826.00,VWS V14.00,2013-05-02 22:11:00,
2013-05-02 16:15:00,28.3,19.8,30.70,ENE,74,1.0,4.0,70,0.06,,,0.43,123.00,VWS V14.00,2013-05-02 22:15:00,
2013-05-02 16:16:00,28.3,21.4,30.71,ENE,76,3.0,4.0,75,0.08,,,0.37,838.00,VWS V14.00,2013-05-02 22:16:00,
2013-05-02 16:21:00,28.1,21.2,30.71,East,83,0.0,4.0,75,0.08,,,0.37,816.00,VWS V14.00,2013-05-02 22:21:00,
2013-05-02 16:26:00,28.2,21.0,30.71,East,84,0.0,4.0,74,0.09,,,0.38,807.00,VWS V14.00,2013-05-02 22:26:00,
2013-05-02 16:30:00,28.6,20.1,30.69,ENE,74,0.0,4.0,70,0.07,,,0.44,56.00,VWS V14.00,2013-05-02 22:30:00,
2013-05-02 16:32:00,28.0,20.8,30.71,East,86,1.0,4.0,74,0.07,,,0.39,756.00,VWS V14.00,2013-05-02 22:32:00,
2013-05-02 16:37:00,28.0,20.5,30.71,ENE,75,1.0,5.0,73,0.07,,,0.39,462.00,VWS V14.00,2013-05-02 22:37:00,
2013-05-02 16:42:00,27.9,20.4,30.70,ENE,75,3.0,3.0,73,0.07,,,0.40,700.00,VWS V14.00,2013-05-02 22:42:00,
2013-05-02 16:45:00,29.0,20.1,30.69,ENE,74,0.0,3.0,69,0.06,,,0.46,53.00,VWS V14.00,2013-05-02 22:45:00,
2013-05-02 16:47:00,28.0,20.5,30.70,ENE,77,0.0,3.0,73,0.07,,,0.40,693.00,VWS V14.00,2013-05-02 22:47:00,
2013-05-02 16:52:00,28.3,20.8,30.70,ENE,77,1.0,3.0,73,0.06,,,0.41,605.00,VWS V14.00,2013-05-02 22:52:00,
2013-05-02 16:57:00,28.4,20.2,30.70,ENE,77,2.0,3.0,71,0.06,,,0.41,413.00,VWS V14.00,2013-05-02 22:57:00,
2013-05-02 17:00:00,29.9,21.3,30.69,ENE,74,0.0,3.0,70,0.05,,,0.47,49.00,VWS V14.00,2013-05-02 23:00:00,
2013-05-02 17:02:00,28.2,20.0,30.69,ENE,77,0.0,3.0,71,0.07,,,0.42,251.00,VWS V14.00,2013-05-02 23:02:00,
2013-05-02 17:07:00,28.3,19.8,30.70,ENE,74,0.0,4.0,70,0.07,,,0.42,132.00,VWS V14.00,2013-05-02 23:07:00,
2013-05-02 17:12:00,28.3,19.8,30.70,ENE,74,1.0,4.0,70,0.06,,,0.43,84.00,VWS V14.00,2013-05-02 23:12:00,
2013-05-02 17:15:00,30.6,22.3,30.68,ENE,74,0.0,3.0,71,0.05,,,0.48,269.00,VWS V14.00,2013-05-02 23:15:00,
2013-05-02 17:17:00,28.3,19.8,30.69,ENE,74,0.0,4.0,70,0.06,,,0.44,60.00,VWS V14.00,2013-05-02 23:17:00,
2013-05-02 17:22:00,28.5,20.0,30.69,ENE,74,0.0,4.0,70,0.07,,,0.44,58.00,VWS V14.00,2013-05-02 23:22:00,
2013-05-02 17:28:00,28.7,20.2,30.69,ENE,74,2.0,3.0,70,0.06,,,0.44,54.00,VWS V14.00,2013-05-02 23:28:00,
2013-05-02 17:30:00,31.3,22.3,30.67,ENE,74,0.0,2.0,69,0.00,,,0.48,313.00,VWS V14.00,2013-05-02 23:30:00,
2013-05-02 17:33:00,28.9,20.4,30.69,ENE,74,0.0,3.0,70,0.05,,,0.45,53.00,VWS V14.00,2013-05-02 23:33:00,
2013-05-02 17:38:00,29.0,20.1,30.69,ENE,74,0.0,3.0,69,0.05,,,0.45,53.00,VWS V14.00,2013-05-02 23:38:00,
2013-05-02 17:43:00,29.2,20.3,30.69,ENE,74,0.0,1.0,69,0.06,,,0.46,51.00,VWS V14.00,2013-05-02 23:43:00,
2013-05-02 17:45:00,31.3,22.3,30.67,ENE,74,0.0,2.0,69,0.00,,,0.48,206.00,VWS V14.00,2013-05-02 23:45:00,
2013-05-02 17:48:00,29.5,20.6,30.69,ENE,74,0.0,1.0,69,0.06,,,0.46,49.00,VWS V14.00,2013-05-02 23:48:00,
2013-05-02 17:53:00,29.8,20.9,30.69,ENE,74,0.0,3.0,69,0.05,,,0.47,49.00,VWS V14.00,2013-05-02 23:53:00,
2013-05-02 17:58:00,30.0,20.4,30.68,ENE,74,1.0,3.0,67,0.05,,,0.47,60.00,VWS V14.00,2013-05-02 23:58:00,
2013-05-02 18:00:00,30.1,20.8,30.66,ENE,74,0.0,2.0,68,0.00,,,0.49,30.00,VWS V14.00,2013-05-03 00:00:00,
2013-05-02 18:03:00,30.0,20.4,30.68,ENE,74,0.0,3.0,67,0.05,,,0.48,134.00,VWS V14.00,2013-05-03 00:03:00,
2013-05-02 18:08:00,30.5,22.9,30.68,ENE,74,1.0,3.0,73,0.05,,,0.48,239.00,VWS V14.00,2013-05-03 00:08:00,
2013-05-02 18:13:00,30.8,22.2,30.68,ENE,74,0.0,2.0,70,0.05,,,0.48,318.00,VWS V14.00,2013-05-03 00:13:00,
2013-05-02 18:15:00,28.2,19.0,30.66,ENE,74,0.0,2.0,68,0.00,,,0.49,25.00,VWS V14.00,2013-05-03 00:15:00,
2013-05-02 18:18:00,31.0,22.7,30.68,ENE,74,0.0,2.0,71,0.04,,,0.48,334.00,VWS V14.00,2013-05-03 00:18:00,
2013-05-02 18:23:00,31.3,23.3,30.68,ENE,74,0.0,2.0,72,0.00,,,0.48,318.00,VWS V14.00,2013-05-03 00:23:00,
2013-05-02 18:28:00,31.3,22.7,30.67,ENE,74,0.0,0.0,70,0.00,,,0.48,299.00,VWS V14.00,2013-05-03 00:28:00,
2013-05-02 18:30:00,26.5,18.7,30.66,ENE,74,0.0,1.0,72,0.00,,,0.49,19.00,VWS V14.00,2013-05-03 00:30:00,
2013-05-02 18:33:00,31.4,22.4,30.67,ENE,74,0.0,2.0,69,0.00,,,0.48,278.00,VWS V14.00,2013-05-03 00:33:00,
2013-05-02 18:39:00,31.4,22.8,30.67,ENE,74,0.0,2.0,70,0.00,,,0.48,253.00,VWS V14.00,2013-05-03 00:39:00,
2013-05-02 18:44:00,31.1,21.8,30.67,ENE,74,0.0,1.0,68,0.00,,,0.49,141.00,VWS V14.00,2013-05-03 00:44:00,
2013-05-02 18:45:00,24.4,17.6,30.66,ENE,74,0.0,0.0,75,0.00,,,0.49,12.00,VWS V14.00,2013-05-03 00:45:00,
2013-05-02 18:49:00,30.7,21.8,30.67,ENE,74,0.0,2.0,69,0.00,,,0.49,100.00,VWS V14.00,2013-05-03 00:49:00,
2013-05-02 18:54:00,30.3,21.0,30.66,ENE,74,0.0,2.0,68,0.00,,,0.49,46.00,VWS V14.00,2013-05-03 00:54:00,
2013-05-02 18:59:00,29.6,21.0,30.66,ENE,74,0.0,0.0,70,0.00,,,0.49,28.00,VWS V14.00,2013-05-03 00:59:00,
2013-05-02 19:00:00,22.7,16.9,30.65,ENE,74,0.0,0.0,78,0.00,,,0.49,5.00,VWS V14.00,2013-05-03 01:00:00,
2013-05-02 19:04:00,28.9,19.7,30.66,ENE,74,0.0,2.0,68,0.00,,,0.49,26.00,VWS V14.00,2013-05-03 01:04:00,
2013-05-02 19:09:00,28.3,19.1,30.66,ENE,74,0.0,2.0,68,0.00,,,0.49,25.00,VWS V14.00,2013-05-03 01:09:00,
2013-05-02 19:14:00,27.8,19.6,30.66,ENE,74,0.0,0.0,71,0.00,,,0.49,23.00,VWS V14.00,2013-05-03 01:14:00,
2013-05-02 19:15:00,21.3,16.4,30.65,ENE,74,0.0,0.0,81,0.00,,,0.49,0.00,VWS V14.00,2013-05-03 01:15:00,
2013-05-02 19:19:00,27.2,19.4,30.66,ENE,74,0.0,0.0,72,0.00,,,0.49,21.00,VWS V14.00,2013-05-03 01:19:00,
2013-05-02 19:24:00,26.5,18.7,30.66,ENE,74,0.0,1.0,72,0.00,,,0.49,19.00,VWS V14.00,2013-05-03 01:24:00,
2013-05-02 19:29:00,25.7,18.3,30.66,ENE,74,0.0,0.0,73,0.00,,,0.49,18.00,VWS V14.00,2013-05-03 01:29:00,
2013-05-02 19:30:00,20.6,16.3,30.65,ENE,72,0.0,2.0,83,0.00,,,0.49,0.00,VWS V14.00,2013-05-03 01:30:00,
2013-05-02 19:35:00,25.1,18.0,30.66,ENE,74,0.0,0.0,74,0.00,,,0.49,16.00,VWS V14.00,2013-05-03 01:35:00,
2013-05-02 19:40:00,24.4,17.6,30.66,ENE,74,0.0,0.0,75,0.00,,,0.49,12.00,VWS V14.00,2013-05-03 01:40:00,
2013-05-02 19:45:00,23.9,17.5,30.66,ENE,74,0.0,0.0,76,0.00,,,0.49,11.00,VWS V14.00,2013-05-03 01:45:00,
2013-05-02 19:50:00,23.3,17.2,30.65,ENE,74,0.0,0.0,77,0.00,,,0.49,7.00,VWS V14.00,2013-05-03 01:50:00,
2013-05-02 19:55:00,22.7,16.9,30.65,ENE,74,0.0,0.0,78,0.00,,,0.49,5.00,VWS V14.00,2013-05-03 01:55:00,
2013-05-02 20:00:00,22.2,16.4,30.65,ENE,74,0.0,0.0,78,0.00,,,0.49,0.00,VWS V14.00,2013-05-03 02:00:00,
2013-05-02 20:05:00,21.6,16.1,30.65,ENE,74,0.0,0.0,79,0.00,,,0.49,0.00,VWS V14.00,2013-05-03 02:05:00,
2013-05-02 20:10:00,21.3,16.4,30.65,ENE,74,0.0,0.0,81,0.00,,,0.49,0.00,VWS V14.00,2013-05-03 02:10:00,
2013-05-02 20:15:00,20.9,16.0,30.65,ENE,74,0.0,0.0,81,0.00,,,0.49,0.00,VWS V14.00,2013-05-03 02:15:00,
2013-05-02 20:21:00,20.7,16.1,30.65,ENE,74,0.0,0.0,82,0.00,,,0.49,0.00,VWS V14.00,2013-05-03 02:21:00,
2013-05-02 20:26:00,20.6,16.3,30.65,ENE,72,0.0,0.0,83,0.00,,,0.49,0.00,VWS V14.00,2013-05-03 02:26:00,
2013-05-02 20:30:00,23.1,17.9,30.65,NNE,22,0.0,1.0,80,0.00,,,0.49,0.00,VWS V14.00,2013-05-03 02:30:00,
2013-05-02 20:31:00,20.7,16.4,30.65,ENE,69,0.0,1.0,83,0.00,,,0.49,0.00,VWS V14.00,2013-05-03 02:31:00,
2013-05-02 20:36:00,20.8,16.5,30.65,ENE,69,0.0,1.0,83,0.00,,,0.49,0.00,VWS V14.00,2013-05-03 02:36:00,
2013-05-02 20:41:00,20.9,16.8,30.65,ENE,69,0.0,0.0,84,0.00,,,0.49,0.00,VWS V14.00,2013-05-03 02:41:00,
2013-05-02 20:45:00,23.5,18.0,30.65,NNE,23,0.0,1.0,79,0.00,,,0.49,0.00,VWS V14.00,2013-05-03 02:45:00,
2013-05-02 20:46:00,21.1,16.8,30.65,ENE,69,0.0,1.0,83,0.00,,,0.49,0.00,VWS V14.00,2013-05-03 02:46:00,
2013-05-02 20:51:00,21.4,17.0,30.65,ENE,60,0.0,2.0,83,0.00,,,0.49,0.00,VWS V14.00,2013-05-03 02:51:00,
2013-05-02 20:56:00,21.6,17.2,30.65,ENE,60,0.0,0.0,83,0.00,,,0.49,0.00,VWS V14.00,2013-05-03 02:56:00,
2013-05-02 21:00:00,24.1,18.2,30.65,NNW,331,0.0,5.0,78,0.00,,,0.49,0.00,VWS V14.00,2013-05-03 03:00:00,
2013-05-02 21:01:00,21.9,17.3,30.65,NW,324,0.0,8.0,82,0.00,,,0.49,0.00,VWS V14.00,2013-05-03 03:01:00,
2013-05-02 21:05:00,24.2,18.3,30.64,NNW,333,0.0,1.0,78,0.00,,,0.49,0.00,VWS V14.00,2013-05-03 03:05:00,
2013-05-02 21:06:00,24.2,18.0,30.64,NNW,333,0.0,1.0,77,0.00,,,0.49,0.00,VWS V14.00,2013-05-03 03:06:00,
2013-05-02 21:07:00,22.2,17.5,30.65,NNW,329,0.0,8.0,82,0.00,,,0.49,0.00,VWS V14.00,2013-05-03 03:07:00,
2013-05-02 21:08:00,24.3,18.1,30.64,NNW,333,0.0,1.0,77,0.00,,,0.49,0.00,VWS V14.00,2013-05-03 03:08:00,
2013-05-02 21:09:00,24.3,18.1,30.64,NNW,333,0.0,1.0,77,0.00,,,0.49,0.00,VWS V14.00,2013-05-03 03:09:00,
2013-05-02 21:10:00,24.3,18.1,30.64,NNW,334,0.0,2.0,77,0.00,,,0.49,0.00,VWS V14.00,2013-05-03 03:10:00,
2013-05-02 21:11:00,24.3,18.1,30.64,NNW,334,0.0,2.0,77,0.00,,,0.49,0.00,VWS V14.00,2013-05-03 03:11:00,
2013-05-02 21:12:00,22.5,17.6,30.65,NNE,22,0.0,1.0,81,0.00,,,0.49,0.00,VWS V14.00,2013-05-03 03:12:00,
2013-05-02 21:13:00,24.3,18.1,30.64,NNW,334,0.0,2.0,77,0.00,,,0.49,0.00,VWS V14.00,2013-05-03 03:13:00,
2013-05-02 21:14:00,24.4,18.2,30.64,NNW,334,0.0,2.0,77,0.00,,,0.49,0.00,VWS V14.00,2013-05-03 03:14:00,
2013-05-02 21:15:00,24.4,18.2,30.64,NNW,334,0.0,2.0,77,0.00,,,0.49,0.00,VWS V14.00,2013-05-03 03:15:00,
2013-05-02 21:16:00,24.4,18.2,30.64,NNW,334,0.0,0.0,77,0.00,,,0.49,0.00,VWS V14.00,2013-05-03 03:16:00,
2013-05-02 21:17:00,22.7,17.5,30.65,NNE,22,0.0,1.0,80,0.00,,,0.49,0.00,VWS V14.00,2013-05-03 03:17:00,
2013-05-02 21:18:00,24.4,18.2,30.64,NNW,334,0.0,0.0,77,0.00,,,0.49,0.00,VWS V14.00,2013-05-03 03:18:00,
2013-05-02 21:19:00,24.4,18.2,30.64,NNW,334,0.0,0.0,77,0.00,,,0.49,0.00,VWS V14.00,2013-05-03 03:19:00,
2013-05-02 21:20:00,24.5,18.3,30.64,NNW,334,0.0,0.0,77,0.00,,,0.49,0.00,VWS V14.00,2013-05-03 03:20:00,
2013-05-02 21:21:00,24.4,18.2,30.64,NNW,334,0.0,0.0,77,0.00,,,0.49,0.00,VWS V14.00,2013-05-03 03:21:00,
2013-05-02 21:22:00,23.0,17.8,30.65,NNE,22,0.0,1.0,80,0.00,,,0.49,0.00,VWS V14.00,2013-05-03 03:22:00,
2013-05-02 21:23:00,24.4,18.2,30.63,NNW,334,0.0,0.0,77,0.00,,,0.49,0.00,VWS V14.00,2013-05-03 03:23:00,
2013-05-02 21:24:00,24.4,18.2,30.63,NNW,334,0.0,0.0,77,0.00,,,0.49,0.00,VWS V14.00,2013-05-03 03:24:00,
2013-05-02 21:25:00,24.3,18.1,30.63,NNW,334,0.0,0.0,77,0.00,,,0.49,0.00,VWS V14.00,2013-05-03 03:25:00,
2013-05-02 21:26:00,24.3,18.1,30.63,NNW,334,0.0,1.0,77,0.00,,,0.49,0.00,VWS V14.00,2013-05-03 03:26:00,
2013-05-02 21:27:00,23.1,17.9,30.65,NNE,22,0.0,0.0,80,0.00,,,0.49,0.00,VWS V14.00,2013-05-03 03:27:00,
2013-05-02 21:28:00,24.2,18.0,30.63,NNW,334,0.0,1.0,77,0.00,,,0.49,0.00,VWS V14.00,2013-05-03 03:28:00,
2013-05-02 21:29:00,24.2,18.0,30.63,NNW,334,0.0,1.0,77,0.00,,,0.49,0.00,VWS V14.00,2013-05-03 03:29:00,
2013-05-02 21:30:00,24.1,18.0,30.63,NNW,334,0.0,1.0,77,0.00,,,0.49,0.00,VWS V14.00,2013-05-03 03:30:00,
2013-05-02 21:31:00,24.1,17.6,30.64,NNW,334,0.0,1.0,76,0.00,,,0.49,0.00,VWS V14.00,2013-05-03 03:31:00,
2013-05-02 21:32:00,23.3,17.8,30.65,NNE,23,0.0,1.0,79,0.00,,,0.49,0.00,VWS V14.00,2013-05-03 03:32:00,
2013-05-02 21:34:00,24.0,17.9,30.63,NNW,332,0.0,2.0,77,0.00,,,0.49,0.00,VWS V14.00,2013-05-03 03:34:00,
2013-05-02 21:37:00,23.5,18.0,30.65,NNE,23,0.0,1.0,79,0.00,,,0.49,0.00,VWS V14.00,2013-05-03 03:37:00,
2013-05-02 21:43:00,23.6,17.8,30.65,NNE,19,0.0,2.0,78,0.00,,,0.49,0.00,VWS V14.00,2013-05-03 03:43:00,
2013-05-02 21:45:00,24.5,18.3,30.63,NNW,327,1.0,2.0,77,0.00,,,0.49,0.00,VWS V14.00,2013-05-03 03:45:00,
2013-05-02 21:48:00,23.8,18.0,30.65,NNW,330,0.0,5.0,78,0.00,,,0.49,0.00,VWS V14.00,2013-05-03 03:48:00,
2013-05-02 21:53:00,24.0,18.1,30.65,NNW,331,1.0,5.0,78,0.00,,,0.49,0.00,VWS V14.00,2013-05-03 03:53:00,
2013-05-02 21:58:00,24.2,18.3,30.65,NNW,331,0.0,0.0,78,0.00,,,0.49,0.00,VWS V14.00,2013-05-03 03:58:00,
2013-05-02 22:00:00,25.6,18.5,30.62,NW,315,0.0,6.0,74,0.00,,,0.49,0.00,VWS V14.00,2013-05-03 04:00:00,
2013-05-02 22:15:00,25.9,17.8,30.61,NW,322,0.0,2.0,71,0.00,,,0.49,0.00,VWS V14.00,2013-05-03 04:15:00,
2013-05-02 22:25:00,24.1,17.6,30.63,NNW,334,0.0,0.0,76,0.00,,,0.49,0.00,VWS V14.00,2013-05-03 04:25:00,
2013-05-02 22:30:00,24.0,17.9,30.64,NNW,332,0.0,2.0,77,0.00,,,0.49,0.00,VWS V14.00,2013-05-03 04:30:00,
2013-05-02 22:35:00,24.2,18.0,30.63,NNW,329,0.0,2.0,77,0.00,,,0.49,0.00,VWS V14.00,2013-05-03 04:35:00,
2013-05-02 22:40:00,24.5,18.3,30.63,NNW,328,0.0,4.0,77,0.00,,,0.49,0.00,VWS V14.00,2013-05-03 04:40:00,
2013-05-02 22:45:00,24.8,18.0,30.62,NNW,341,0.0,4.0,75,0.00,,,0.49,0.00,VWS V14.00,2013-05-03 04:45:00,
2013-05-02 22:50:00,25.2,18.1,30.62,NW,324,0.0,6.0,74,0.00,,,0.49,0.00,VWS V14.00,2013-05-03 04:50:00,
2013-05-02 22:55:00,25.7,18.6,30.62,NW,315,0.0,1.0,74,0.00,,,0.49,0.00,VWS V14.00,2013-05-03 04:55:00,
2013-05-02 23:00:00,25.9,18.5,30.62,NW,315,0.0,1.0,73,0.00,,,0.49,0.00,VWS V14.00,2013-05-03 05:00:00,
2013-05-02 23:06:00,25.9,18.1,30.61,NW,322,0.0,2.0,72,0.00,,,0.49,0.00,VWS V14.00,2013-05-03 05:06:00,
2013-05-02 23:11:00,25.9,18.1,30.61,NW,322,0.0,1.0,72,0.00,,,0.49,0.00,VWS V14.00,2013-05-03 05:11:00,
2013-05-02 23:15:00,24.4,17.0,30.59,NW,317,0.0,4.0,73,0.00,,,0.49,0.00,VWS V14.00,2013-05-03 05:15:00,
2013-05-02 23:16:00,25.8,18.0,30.61,NW,323,0.0,1.0,72,0.00,,,0.49,0.00,VWS V14.00,2013-05-03 05:16:00,
2013-05-02 23:21:00,25.8,18.0,30.60,NW,323,0.0,1.0,72,0.00,,,0.49,0.00,VWS V14.00,2013-05-03 05:21:00,
2013-05-02 23:26:00,25.7,17.9,30.60,NW,323,0.0,0.0,72,0.00,,,0.49,0.00,VWS V14.00,2013-05-03 05:26:00,
2013-05-02 23:30:00,25.1,17.0,30.58,NNW,339,0.0,9.0,71,0.00,,,0.49,0.00,VWS V14.00,2013-05-03 05:30:00,
2013-05-02 23:31:00,25.6,17.8,30.60,NW,323,0.0,1.0,72,0.00,,,0.49,0.00,VWS V14.00,2013-05-03 05:31:00,
2013-05-02 23:36:00,25.4,17.6,30.60,NW,324,0.0,2.0,72,0.00,,,0.49,0.00,VWS V14.00,2013-05-03 05:36:00,
2013-05-02 23:41:00,25.1,17.7,30.60,NW,324,0.0,0.0,73,0.00,,,0.49,0.00,VWS V14.00,2013-05-03 05:41:00,
2013-05-02 23:45:00,26.4,17.3,30.58,NNW,338,0.0,7.0,68,0.00,,,0.49,0.00,VWS V14.00,2013-05-03 05:45:00,
2013-05-02 23:46:00,24.7,17.6,30.60,NW,324,1.0,1.0,74,0.00,,,0.49,0.00,VWS V14.00,2013-05-03 05:46:00,
2013-05-02 23:51:00,24.5,17.1,30.60,NNW,329,0.0,4.0,73,0.00,,,0.49,0.00,VWS V14.00,2013-05-03 05:51:00,
2013-05-02 23:57:00,24.4,17.3,30.60,NNW,329,0.0,1.0,74,0.00,,,0.49,0.00,VWS V14.00,2013-05-03 05:57:00,